Tracking 18980 objects as of 19-Feb-2018
HD Live streaming from Space Station
objects crossing your sky now

GORIZONT 22

Track GORIZONT 22 now!
GORIZONT 22 is classified as:


NORAD ID: 20953
Int'l Code: 1990-102A
Perigee: 35,726.6 km
Apogee: 35,794.7 km
Inclination: 15.0 °
Period: 1,434.4 minutes
Semi major axis: 42131 km
RCS: 3.5481 m2 (large)
Launch date: November 23, 1990
Source: Commonwealth of Independent States (former USSR) (CIS)
Launch site: TYURATAM MISSILE AND SPACE COMPLEX (TTMTR)
aabbcc
Your satellite tracking list
Your tracking list is empty




NASA's NSSDC Master Catalog

Two Line Element Set (TLE):
1 20953U 90102A   18049.68288365 -.00000056  00000-0  00000+0 0  9990
2 20953  14.9716   2.9375 0008073 289.3716 168.9737  1.00389921 99911
Source of the keplerian elements: AFSPC